Regional Weather Roundup
Issued by NWS Charleston, SC

Current Version | Previous Version | Graphics & Text | Print | Product List | Glossary On
Versions: 1 2 3 4 5 6 7 8 9 10 11 12 13 14 15 16 17 18 19 20 21 22 23 24 25 26 27 28 29 30 31 32 33 34 35 36 37 38 39 40 41 42 43 44 45 46 47 48 49 50
000
ASUS42 KCHS 040612
RWRCHS

REGIONAL WEATHER ROUNDUP
NATIONAL WEATHER SERVICE CHARLESTON SC
200 AM EDT MON MAY 04 2015

NOTE: "FAIR" INDICATES FEW OR NO CLOUDS BELOW 12,000 FEET WITH NO
SIGNIFICANT WEATHER AND/OR OBSTRUCTIONS TO VISIBILITY.

NOT ALL STATIONS ARE QUALITY CONTROLLED BY THE NATIONAL
WEATHER SERVICE. USE DATA WITH CAUTION...ESPECIALLY
DEWPOINT OBSERVATIONS.

SCZ027-030-031-034>040-042>050-040700-
...SOUTHEAST SOUTH CAROLINA...

CITY           SKY/WX    TMP DP  RH WIND       PRES   REMARKS
N CHARLESTON   PTCLDY    63  59  87 CALM      30.23F
6HR MIN TEMP:  63; 6HR MAX TEMP:  70;

WATERFRONT PRK   N/A     66 N/A N/A CALM        N/A
MOUNT PLEASANT FAIR      59  57  94 MISG      30.24S
PINOPOLIS        N/A     66  61  82 VRB2      30.15
MONCKS CORNER  FAIR      59  57  94 CALM      30.24S
SUMMERVILLE    FAIR      61  61 100 CALM      30.25S
BEAUFORT MCAS  CLEAR     61  58  90 CALM      30.23F
6HR MIN TEMP:  61; 6HR MAX TEMP:  73;

BEAUFORT ARPT  FAIR      63  63 100 CALM      30.22F
HILTON HEAD IS CLEAR     63  61  94 CALM      30.24F
WALTERBORO     CLEAR     59  57  94 CALM      30.24S
ALLENDALE      FAIR      59  54  82 CALM      30.22S

...SOUTHERN MIDLANDS AND PEE DEE...

CITY           SKY/WX    TMP DP  RH WIND       PRES   REMARKS
GEORGETOWN     NOT AVBL
KINGSTREE      NOT AVBL
ORANGEBURG     CLEAR     59  53  80 CALM      30.24S
6HR MIN TEMP:  59; 6HR MAX TEMP:  75;

BARNWELL       FAIR      59  54  82 CALM      30.23S
AIKEN          FAIR      61  46  59 S5        30.25S
MANNING        FAIR      57  54  88 CALM      30.24S
COLUMBIA       PTCLDY    63  53  70 E3        30.22S
6HR MIN TEMP:  63; 6HR MAX TEMP:  76;

SUMTER         CLEAR     60  54  80 CALM      30.22S
6HR MIN TEMP:  60; 6HR MAX TEMP:  73;

FLORENCE       CLEAR     61  57  87 S3        30.24S
6HR MIN TEMP:  60; 6HR MAX TEMP:  73;

MYRTLE BEACH   CLEAR     64  57  77 CALM      30.26F
N MYRTLE BEACH CLEAR     66  59  78 S6        30.24S
6HR MIN TEMP:  66; 6HR MAX TEMP:  69;


$$

GAZ063-065-086>088-099>101-113>116-118-119-134>141-150-040700-
...SOUTHEAST GEORGIA...

CITY           SKY/WX    TMP DP  RH WIND       PRES   REMARKS
SAVANNAH ARPT  CLEAR     58  55  90 CALM      30.23S
6HR MIN TEMP:  58; 6HR MAX TEMP:  71;

HUNTER AAF     CLEAR     60  59  97 CALM      30.20S
6HR MIN TEMP:  59; 6HR MAX TEMP:  71;

FORT STEWART   CLEAR     57  52  83 CALM      30.20F
6HR MIN TEMP:  56; 6HR MAX TEMP:  72;

STATESBORO       N/A     55  55 100 CALM      30.22F
SYLVANIA       CLEAR     57  53  88 CALM      30.23F
CLAXTON        FAIR      54  54 100 CALM      30.23S

...CSRA...CENTRAL AND FAR SOUTHEAST GEORGIA...

CITY           SKY/WX    TMP DP  RH WIND       PRES   REMARKS
THOMSON        CLEAR     64  55  72 CALM      30.26S
AUGUSTA-BUSH   CLEAR     56  53  90 CALM      30.22R
6HR MIN TEMP:  55; 6HR MAX TEMP:  71;

AUGUSTA-DANIEL CLEAR     67  48  50 S5        30.23R
SWAINSBORO     NOT AVBL
VIDALIA        CLEAR     63  52  67 CALM      30.22S
EASTMAN        FAIR      58  56  91 CALM      30.24S
HAZLEHURST     FAIR      64  53  67 S6        30.20F
ALMA           CLEAR     54  52  93 CALM      30.21S
6HR MIN TEMP:  54; 6HR MAX TEMP:  74;

WAYCROSS       CLEAR     61  56  83 CALM      30.21F
JESUP          FAIR      55  54  94 CALM      30.22S
BAXLEY         FAIR      59  54  82 CALM      30.21S
BRUNSWICK      CLEAR     55  54  94 CALM      30.22F
SAINT SIMONS   CLEAR     63  56  78 CALM      30.21F
6HR MIN TEMP:  63; 6HR MAX TEMP:  72;


$$

SCZ027-028-034-036>038-045-046-048>050-GAZ119-141-040700-
...LAKE AND SUPPLEMENTAL COASTAL OBSERVATIONS...

STATION/POSITION TIME  TEMP    WIND        PRES    WAVE   SWELL
                       AIR SEA DIR/SP/G            HT/PER HT/PER/DIR
                 (UTC) (F)     (DEG/KT/KT) (MB)    (FT/S) (FT/S/D)
UPR LAKE MARION  NOT AVBL
WINYAH BAY       0445   63     300/  1     1023.0
LAKE MURRAY      0500   69     190/  6/ 10 1022.7R
ACE BASIN NERRS  NOT AVBL
FORT PULASKI     0506   67 70  130/  3/  3 1024.1S
SAPELO ISLAND    0500   62     160/  3     1023.0S

$$

ANZ835-935-AMZ111-154-330-350-352-354-370-450-454-472-040700-
...C-MAN AND BUOY OBSERVATIONS...

STATION/POSITION TIME  TEMP    WIND        PRES    WAVE   SWELL
                       AIR SEA DIR/SP/G            HT/PER HT/PER/DIR
                 (UTC) (F)     (DEG/KT/KT) (MB)    (FT/S) (FT/S/D)
BUOY 41004       0550   73 73  150/ 10/ 12 1023.5F   3/11   2/11
BUOY 41008       0550   70 70  120/  2/  4 1023.5F   2/10   2/ 80/10
FOLLY BEACH CMAN 0600   68     170/  2/  2 1023.8F
CAPERS NEARSHORE 0508   69     180/  4/  4 1024.0F
FRIPP NEARSHORE  0500   70     170/  6/  8 1023.2S


STATION/POSITION TIME  TEMP    WIND        PRES    WAVE   SWELL
                       AIR SEA DIR/SP/G            HT/PER HT/PER/DIR
                 (UTC) (F)     (DEG/KT/KT) (MB)    (FT/S) (FT/S/D)
5E ST. MARYS GA  0521      72                N/A     2/12   2/ 90/12
FRYING PAN BUOY  0550   73 72  190/  6/  6 1025.1F   4/11   3/ 80/11
BUOY 41025       0550   63 60  260/  6/  6 1024.3F   4/11   3/ 60/11
CAPE LOOKOUT NC  0600   67     230/  6/  7 1024.2F
BUOY 41002       0550   68 70   60/ 10/ 12 1024.3F   7/11   7/ 30/11
BUOY 41010       0520   72 78   70/ 16/ 19 1022.3F
ST AUGUSTINE FL  0600   71 71   40/  4/  4 1023.3F


$$



USA.gov is the U.S. government's official web portal to all federal, state and local government web resources and services.